Weather WX

World > North America > United States > Ohio

New Bloomington, Ohio Regional Weather

Lat: 40.59N, Lon: 83.32W
Wx Zone: OHZ036
Feedback

New Bloomington, OH Regional Weather

Expires:201906261500;;107720
ASUS41 KCLE 261412
RWRCLE
OHIO REGIONAL WEATHER ROUNDUP
NATIONAL WEATHER SERVICE WILMINGTON, OH
1000 AM EDT WED JUN 26 2019

NOTE: "FAIR" INDICATES FEW OR NO CLOUDS BELOW 12,000 FEET WITH NO
SIGNIFICANT WEATHER AND/OR OBSTRUCTIONS TO VISIBILITY.


OHZ036-037-039>041-045>050-054>059-063>069-073>076-082>088-261500-
  CENTRAL AND SOUTHEAST OHIO
  
CITY           SKY/WX    TMP DP  RH WIND       PRES   REMARKS
COLUMBUS       FAIR      77  63  61 W8        30.11S                  
OSU AIRPORT    FAIR      77  65  66 W12       30.12R                  
BOLTON FIELD   SUNNY     75  64  69 W12G17    30.13R                  
RICKENBACK AFB FAIR      76  65  68 W8        30.12R                  
NEWARK         FAIR      79  65  62 SW7       30.11S                  
MARION         FAIR      77  64  64 W12       30.12R                  
LANCASTER      FAIR      76  65  68 W9        30.13S                  
ZANESVILLE     FAIR      76  64  66 SW6       30.12S                  
NEW PHILLY     FAIR      76  63  64 W7        30.11S                  
$$
  

SKY/WX - Weather  TMP - Temperature  DP - Dew Point  RH - Relative Humidity
WIND - Wind Direction/Speed PRES - Barometric Pressure VSB - Visibility
WCI - Wind Chill Index E13G22 Wind - East Wind 13 mph/Gusts of 22 mph